{"data":{"norad_id":38857,"intl_designator":"2012-055A","name":"GSAT0103 (GALILEO-FM3)","alt_names":[],"object_type":"PAYLOAD","status":"ACTIVE","operator":null,"country":"ESA","launch_date":"2012-10-12","launch_site_code":"FRGUI","launch_vehicle":null,"mission":null,"orbit_class":"UNKNOWN","rcs_meters":8.5737,"size_class":null,"mass_kg":null,"dimensions":null,"purposes":["earth_obs","nav"],"wikipedia_slug":null,"has_3d_model":false,"image_url":null,"decayed_at":null,"tle_current":{"epoch":"2026-09-18T03:45:25.392960Z","epoch_age_seconds":216963,"freshness":"STALE","line1":"1 38857U 12055A   26261.15654390  .00000015  00000+0  00000+0 0  9998","line2":"2 38857  55.8637  98.9927 0001881 313.2661  46.7895  1.70473599 86593","mean_motion":1.70473599,"eccentricity":0.0001881,"inclination_deg":55.8637,"raan_deg":98.9927,"arg_perigee_deg":313.2661,"mean_anomaly_deg":46.7895,"bstar":0,"rev_number":8659,"period_min":844.70557813471,"perigee_km":23216.66164725,"apogee_km":23227.797305119,"semimajor_km":29600.366476185,"source":"CELESTRAK","updated_at":"2026-09-20T09:00:46.491897Z"}}}